EST,Max TemperatureF,Mean TemperatureF,Min TemperatureF,Max Dew PointF,MeanDew PointF,Min DewpointF,Max Humidity, Mean Humidity, Min Humidity, Max Sea Level PressureIn, Mean Sea Level PressureIn, Min Sea Level PressureIn, Max VisibilityMiles, Mean VisibilityMiles, Min VisibilityMiles, Max Wind SpeedMPH, Mean Wind SpeedMPH, Max Gust SpeedMPH,PrecipitationIn, CloudCover, Events, WindDirDegrees
2012-11-1,51,46,41,37,32,26,86,65,46,29.82,29.75,29.71,10,10,10,18,13,23,0.00,7,,289
2012-11-2,44,38,34,31,29,27,76,65,58,30.09,29.96,29.83,10,10,10,17,10,24,0.00,7,,307
2012-11-3,48,38,30,31,29,26,85,67,50,30.21,30.16,30.10,10,10,10,10,6,,0.00,3,,336
2012-11-4,41,36,32,29,27,26,82,69,60,30.22,30.20,30.17,10,10,10,8,5,,0.00,7,,325
2012-11-5,42,34,27,28,25,23,89,71,53,30.24,30.21,30.19,10,10,7,7,3,,0.00,4,,353
2012-11-6,44,35,26,29,26,22,85,74,51,30.18,30.08,29.98,10,10,7,13,3,17,0.00,3,,101
2012-11-7,48,38,27,37,33,25,96,79,63,30.16,30.05,29.97,10,9,5,13,5,18,0.00,4,,27
2012-11-8,48,37,26,33,29,25,93,77,50,30.26,30.20,30.16,10,6,2,6,3,,0.00,0,,283
2012-11-9,55,42,30,45,35,27,93,76,53,30.25,30.18,30.11,10,6,2,12,3,,0.01,3,Rain,186
2012-11-10,66,57,48,48,46,44,89,71,52,30.16,30.11,30.06,10,8,5,14,7,20,0.02,4,Rain,161
2012-11-11,68,60,52,46,40,36,66,49,33,30.18,30.10,30.00,10,10,10,23,13,33,0.00,0,,189
2012-11-12,62,48,34,53,41,23,94,82,48,30.32,30.05,29.91,10,8,3,30,17,41,0.57,7,Rain,237
2012-11-13,37,35,30,28,24,20,76,66,57,30.57,30.47,30.34,10,10,10,12,6,,0.00,8,,258
2012-11-14,39,32,25,29,26,20,88,73,57,30.61,30.53,30.43,10,10,9,7,1,,0.00,4,,83
2012-11-15,46,38,30,31,29,26,85,73,56,30.44,30.40,30.36,10,9,5,5,1,,0.00,3,,18
2012-11-16,50,38,26,33,27,24,93,72,41,30.53,30.47,30.40,10,7,2,5,0,,0.00,0,,70
2012-11-17,53,40,28,40,34,24,100,86,47,30.64,30.57,30.54,10,4,0,8,3,,0.00,0,Fog,70
2012-11-18,53,42,30,36,33,30,100,89,47,30.54,30.50,30.44,10,3,0,9,3,,0.00,0,Fog,74
2012-11-19,55,40,26,38,29,25,100,84,41,30.43,30.35,30.20,10,5,0,6,0,,0.00,2,Fog,90
2012-11-20,57,46,36,40,37,32,89,73,47,30.19,30.15,30.09,10,8,6,7,1,,0.00,5,,128
2012-11-21,59,46,32,41,35,30,100,86,48,30.25,30.20,30.16,10,3,0,9,1,,0.00,0,Fog,210
2012-11-22,62,48,35,45,38,32,93,77,48,30.20,30.11,29.88,10,5,2,23,7,29,0.02,0,,196
2012-11-23,54,43,32,49,32,23,93,73,61,30.07,29.91,29.78,10,9,6,28,19,40,0.11,7,Rain-Snow,249
2012-11-24,34,32,30,25,21,18,72,62,52,30.17,30.12,30.06,10,10,10,22,13,28,0.00,8,,284
2012-11-25,39,32,26,25,23,21,81,68,55,30.09,29.97,29.88,10,10,7,17,10,17,0.00,4,,240
2012-11-26,42,34,26,29,24,19,93,70,51,30.31,30.19,30.04,10,8,5,13,4,,0.00,5,,285
2012-11-27,35,30,24,21,18,16,75,62,48,30.40,30.34,30.30,10,10,10,9,4,,0.00,1,,276
2012-11-28,42,34,26,24,22,20,81,67,49,30.37,30.33,30.27,10,10,7,17,9,23,0.00,3,,241
2012-11-29,46,36,27,29,26,21,82,67,46,30.36,30.30,30.23,10,9,5,17,8,23,0.00,1,,215
2012-11-30,51,43,35,39,33,29,93,72,44,30.24,30.20,30.14,10,8,5,10,4,,0.00,6,,85